sat.trackr.live / text

‹ back to catalog

STARLINK-34689

NORAD 64949 · 2025-158T

PAYLOAD ACTIVE UNKNOWN

§ Identity

Operator
Country
US
Launch date
2025-07-27
Launch site
AFWTR
Launch vehicle
Mass (kg)
RCS (m²)

Purposes: comms

External: N2YO · Heavens-Above · Gunter

§ Orbital elements

Epoch: 2026-05-25T03:01:11.428608Z

Period
95.64 min
Inclination
97.4495°
Eccentricity
0.0002605
Mean motion
15.05657124 rev/d
Perigee alt
547.7 km
Apogee alt
551.3 km
Semi-major
6,927.6 km
B*
2.0195e-4
RAAN
8.9915°
Arg perigee
88.8506°
Mean anomaly
271.3020°
Rev number
4,685

§ Raw data

STARLINK-346891 64949U 25158T   26145.12582672  .00002857  00000+0  20195-3 0  99952 64949  97.4495   8.9915 0002605  88.8506 271.3020 15.05657124 46856

JSON: /api/v1/satellites/64949 · /tle

For live sub-satellite position, see the globe view (requires WebGL).

§ Visibility from observer

Set your observer location to see the next 7 days of passes ≥ 10°. The values pass through the URL so the page stays shareable.

No JS? Fill the form by hand. The geolocation button needs JavaScript.